Location: Boissi�res
(45.2500°N, 2.3667°E)
Time: 20:54:52
(UTC+00:00)

Cosmos 1666 - Pass Details

Date: 03 March 2021
Orbit: 497 x 518 km, 82.5° (Epoch: 17 April)

Event Time Altitude Azimuth Distance (km) Brightness Sun altitude
Rises 18:28:24 0° 152° (SSE) 2,573 6.0 -9.2°
Reaches altitude 10° 18:30:56 10° 133° (SE) 1,697 4.9 -9.7°
Maximum altitude 18:33:35 19° 88° (E) 1,251 4.0 -10.1°
Drops below altitude 10° 18:36:14 10° 42° (NE) 1,712 5.0 -10.6°
Sets 18:38:49 0° 24° (NNE) 2,604 6.0 -11.0°
